This demonstration page uses our WeatherBlox Daily Observations layout. Learn more.

Left ArrowRight Arrow

39.29038, -76.61219

Hourly Observations for January 27, 2017

Temp ( °F °C ) Dew Point ( °F °C ) Humidity (%) Winds ( mph kmh ) Pressure ( in mb ) Visibility ( mi km ) Precip ( " mm )
12:54 am 00:54 undefined 44 6.7 25 -3.9 47 47 undefined N/A 29.76 1008 N/A 0.00 0.00
1:54 am 01:54 undefined 44 6.7 23 -5 43 43 undefined N/A 29.78 1009 N/A 0.00 0.00
2:54 am 02:54 undefined 43 6.1 24 -4.4 47 47 undefined N/A 29.79 1009 N/A 0.00 0.00
3:54 am 03:54 undefined 43 6.1 25 -3.9 49 49 undefined N/A 29.80 1009 N/A 0.00 0.00
4:54 am 04:54 undefined 43 6.1 24 -4.4 47 47 undefined N/A 29.78 1008 N/A 0.00 0.00
5:54 am 05:54 undefined 42 5.6 22 -5.6 45 45 undefined N/A 29.78 1009 N/A 0.00 0.00
6:54 am 06:54 undefined 41 5 20 -6.7 43 43 undefined N/A 29.81 1010 N/A 0.00 0.00
7:54 am 07:54 undefined 40 4.4 19 -7.2 43 43 undefined N/A 29.82 1010 N/A 0.00 0.00
8:54 am 08:54 undefined 42 5.6 17 -8.3 36 36 undefined N/A 29.84 1011 N/A 0.00 0.00
9:54 am 09:54 undefined 43 6.1 18 -7.8 37 37 undefined N/A 29.84 1010 N/A 0.00 0.00
10:54 am 10:54 undefined 43 6.1 18 -7.8 37 37 undefined N/A 29.84 1010 N/A 0.00 0.00
11:54 am 11:54 undefined 44 6.7 16 -8.9 32 32 undefined N/A 29.80 1009 N/A 0.00 0.00
12:54 pm 12:54 undefined 43 6.1 16 -8.9 34 34 undefined N/A 29.76 1008 N/A 0.00 0.00
1:54 pm 13:54 undefined 43 6.1 17 -8.3 35 35 undefined N/A 29.75 1007 N/A 0.00 0.00
2:54 pm 14:54 undefined 43 6.1 16 -8.9 34 34 undefined N/A 29.74 1007 N/A 0.00 0.00
3:54 pm 15:54 undefined 42 5.6 18 -7.8 38 38 undefined N/A 29.75 1008 N/A 0.00 0.00
4:54 pm 16:54 undefined 41 5 17 -8.3 38 38 undefined N/A 29.77 1008 N/A 0.00 0.00
5:54 pm 17:54 undefined 40 4.4 17 -8.3 40 40 undefined N/A 29.78 1008 N/A 0.00 0.00
6:54 pm 18:54 undefined 39 3.9 17 -8.3 41 41 undefined N/A 29.79 1009 N/A 0.00 0.00
7:54 pm 19:54 undefined 38 3.3 18 -7.8 44 44 undefined N/A 29.79 1009 N/A 0.00 0.00
8:54 pm 20:54 undefined 38 3.3 17 -8.3 43 43 undefined N/A 29.79 1009 N/A 0.00 0.00
9:54 pm 21:54 undefined 38 3.3 18 -7.8 44 44 undefined N/A 29.80 1009 N/A 0.00 0.00
10:54 pm 22:54 undefined 38 3.3 19 -7.2 46 46 undefined N/A 29.80 1009 N/A 0.00 0.00
11:54 pm 23:54 undefined 38 3.3 17 -8.3 43 43 undefined N/A 29.79 1009 N/A 0.00 0.00

Powered by AerisWeather